Location: Newark
(43.6583°N, 1.6617°E)
Time: 10:27:03
(UTC+00:00)

Transit 4A - Pass Details

Date: 31 August 2019
Orbit: 865 x 980 km, 66.8° (Epoch: 18 September)

Event Time Altitude Azimuth Distance (km) Brightness Sun altitude
Rises 15:41:09 0° 201° (SSW) 3,659 11.5 29.6°
Reaches altitude 10° 15:43:42 10° 199° (SSW) 2,720 10.9 29.2°
Maximum altitude 15:50:03 71° 117° (ESE) 1,036 8.4 28.1°
Drops below altitude 10° 15:56:24 10° 35° (NE) 2,722 10.0 27.0°
Sets 15:58:57 0° 34° (NNE) 3,662 10.6 26.5°
